Weather History for Dyersburg, TN

Change the Weather History Date:

Wednesday, May 2, 2012

  Actual Average Record
Temperature  
Mean Temperature 80 °F -  
Max Temperature 91 °F 73 °F 91 °F (2012)
Min Temperature 69 °F 55 °F 44 °F (2014)
Cooling Degree Days 15    
Growing Degree Days 30 (Base 50)    
Moisture  
Dew Point 61 °F    
Average Humidity 54    
Maximum Humidity 73    
Minimum Humidity 40    
Precipitation  
Precipitation 0.00 in - - ()
Sea Level Pressure  
Sea Level Pressure 29.99 in    
Wind  
Wind Speed 7 mph (South)    
Max Wind Speed 14 mph    
Max Gust Speed 26 mph    
Visibility 10 miles    
Events      
Averages and records for this station are not official NWS values.
T = Trace of Precipitation, MM = Missing Value Source: NWS Daily Summary

Daily Weather History Graph

Daily Weather History Graph

Search for Another Location

Airport:

Trip Planner

Search our weather history database for the weather conditions in past years. The results will help you decide how hot, cold, wet, or windy it might be!

Date:

Astronomy

May. 02, 2012 Rise Set
Actual Time 6:03 AM CDT 7:46 PM CDT
Civil Twilight 5:35 AM CDT 8:13 PM CDT
Nautical Twilight 5:02 AM CDT 8:47 PM CDT
Astronomical Twilight 4:27 AM CDT 9:22 PM CDT
Moon 4:04 PM CDT (5/2) 3:26 AM CDT (5/2)
Length of Visible Light 14h 37m
Length of Day
13h 42m
Waxing Gibbous, 83% of the Moon is Illuminated
May 2
Waxing Gibbous
May 5
Full
May 12
Last Quarter
May 20
New
May 28
First Quarter

Hourly Weather History & Observations

Time (CDT) Temp. Heat Index Dew Point Humidity Pressure Visibility Wind Dir Wind Speed Gust Speed Precip Events Conditions
12:15 AM 75.2 °F - 60.8 °F 61% 29.96 in 10.0 mi South 5.8 mph - N/A   Clear
12:35 AM 75.2 °F - 60.8 °F 61% 29.96 in 10.0 mi South 6.9 mph - N/A   Clear
12:55 AM 75.2 °F - 60.8 °F 61% 29.96 in 10.0 mi South 6.9 mph - N/A   Clear
1:15 AM 75.2 °F - 60.8 °F 61% 29.96 in 10.0 mi South 6.9 mph - N/A   Clear
1:35 AM 75.2 °F - 60.8 °F 61% 29.96 in 10.0 mi South 5.8 mph - N/A   Clear
1:55 AM - - - N/A% 29.95 in 10.0 mi South 8.1 mph - N/A   Clear
2:15 AM 73.4 °F - 60.8 °F 65% 29.95 in 10.0 mi South 5.8 mph - N/A   Clear
2:35 AM 73.4 °F - 60.8 °F 65% 29.95 in 10.0 mi South 4.6 mph - N/A   Clear
2:55 AM 71.6 °F - 60.8 °F 69% 29.96 in 10.0 mi South 4.6 mph - N/A   Clear
3:15 AM - - - N/A% 29.95 in 10.0 mi South 6.9 mph - N/A   Clear
3:35 AM - - - N/A% 29.95 in 10.0 mi South 5.8 mph - N/A   Clear
3:55 AM 71.6 °F - 60.8 °F 69% 29.96 in 10.0 mi South 4.6 mph - N/A   Clear
4:15 AM 71.6 °F - 59.0 °F 64% 29.97 in 10.0 mi South 5.8 mph - N/A   Clear
4:35 AM 71.6 °F - 59.0 °F 64% 29.97 in 10.0 mi South 4.6 mph - N/A   Clear
4:55 AM 71.6 °F - 59.0 °F 64% 29.98 in 10.0 mi South 4.6 mph - N/A   Clear
5:15 AM 71.6 °F - 59.0 °F 64% 29.98 in 10.0 mi South 5.8 mph - N/A   Clear
5:35 AM 69.8 °F - 59.0 °F 68% 29.98 in 10.0 mi SSE 6.9 mph - N/A   Clear
5:55 AM 69.8 °F - 59.0 °F 68% 29.99 in 10.0 mi South 5.8 mph - N/A   Clear
6:15 AM 69.8 °F - 59.0 °F 68% 30.00 in 10.0 mi South 4.6 mph - N/A   Clear
6:35 AM 69.8 °F - 59.0 °F 68% 30.00 in 10.0 mi SSE 4.6 mph - N/A   Clear
6:55 AM 69.8 °F - 60.8 °F 73% 30.01 in 10.0 mi SSE 5.8 mph - N/A   Clear
7:15 AM 71.6 °F - 60.8 °F 69% 30.02 in 10.0 mi SSE 5.8 mph - N/A   Clear
7:35 AM 71.6 °F - 60.8 °F 69% 30.03 in 10.0 mi SSE 5.8 mph - N/A   Clear
7:55 AM 73.4 °F - 60.8 °F 65% 30.03 in 10.0 mi SSE 3.5 mph - N/A   Clear
8:15 AM 75.2 °F - 62.6 °F 65% 30.03 in 10.0 mi South 5.8 mph - N/A   Clear
8:35 AM 78.8 °F - 62.6 °F 57% 30.04 in 10.0 mi South 5.8 mph - N/A   Clear
8:55 AM 78.8 °F - 62.6 °F 57% 30.04 in 10.0 mi SSW 9.2 mph - N/A   Clear
9:15 AM 80.6 °F 81.8 °F 62.6 °F 54% 30.04 in 10.0 mi SSW 4.6 mph - N/A   Clear
9:35 AM 82.4 °F 83.4 °F 62.6 °F 51% 30.04 in 10.0 mi SSW 4.6 mph - N/A   Clear
9:55 AM 82.4 °F 83.4 °F 62.6 °F 51% 30.04 in 10.0 mi South 6.9 mph - N/A   Clear
10:15 AM 82.4 °F 83.4 °F 62.6 °F 51% 30.04 in 10.0 mi South 4.6 mph - N/A   Clear
10:35 AM 84.2 °F 85.0 °F 62.6 °F 48% 30.03 in 10.0 mi South 8.1 mph - N/A   Clear
10:55 AM 84.2 °F 85.0 °F 62.6 °F 48% 30.03 in 10.0 mi SSW 9.2 mph 16.1 mph N/A   Clear
11:15 AM 86.0 °F 86.6 °F 62.6 °F 45% 30.03 in 10.0 mi SSW 9.2 mph 16.1 mph N/A   Partly Cloudy
11:35 AM 86.0 °F 86.6 °F 62.6 °F 45% 30.02 in 10.0 mi South 10.4 mph 18.4 mph N/A   Partly Cloudy
11:55 AM 86.0 °F 86.6 °F 62.6 °F 45% 30.02 in 10.0 mi South 10.4 mph - N/A   Clear
12:15 PM 87.8 °F 88.5 °F 62.6 °F 43% 30.01 in 10.0 mi South 9.2 mph - N/A   Partly Cloudy
12:35 PM 87.8 °F 88.5 °F 62.6 °F 43% 30.01 in 10.0 mi SSW 9.2 mph - N/A   Scattered Clouds
12:55 PM 87.8 °F 88.5 °F 62.6 °F 43% 30.00 in 10.0 mi SSW 10.4 mph - N/A   Scattered Clouds
1:15 PM 87.8 °F 88.5 °F 62.6 °F 43% 30.00 in 10.0 mi South 10.4 mph 17.3 mph N/A   Mostly Cloudy
1:35 PM 89.6 °F 91.1 °F 64.4 °F 43% 30.00 in 10.0 mi South 9.2 mph - N/A   Mostly Cloudy
1:55 PM 87.8 °F 88.5 °F 62.6 °F 43% 30.00 in 10.0 mi South 6.9 mph 16.1 mph N/A   Mostly Cloudy
2:15 PM 87.8 °F 88.5 °F 62.6 °F 43% 29.99 in 10.0 mi SSW 9.2 mph 16.1 mph N/A   Mostly Cloudy
2:35 PM 87.8 °F 88.5 °F 62.6 °F 43% 29.98 in 10.0 mi South 8.1 mph - N/A   Scattered Clouds
2:55 PM 91.4 °F 93.2 °F 64.4 °F 41% 29.98 in 10.0 mi SSW 6.9 mph - N/A   Scattered Clouds
3:15 PM 91.4 °F 93.2 °F 64.4 °F 41% 29.97 in 10.0 mi South 9.2 mph - N/A   Scattered Clouds
3:35 PM 91.4 °F 93.2 °F 64.4 °F 41% 29.96 in 10.0 mi South 8.1 mph - N/A   Mostly Cloudy
3:55 PM 89.6 °F 90.1 °F 62.6 °F 40% 29.96 in 10.0 mi SSE 9.2 mph - N/A   Mostly Cloudy
4:15 PM 89.6 °F 91.1 °F 64.4 °F 43% 29.95 in 10.0 mi South 9.2 mph - N/A   Partly Cloudy
4:35 PM 89.6 °F 91.1 °F 64.4 °F 43% 29.94 in 10.0 mi SSW 8.1 mph - N/A   Clear
4:55 PM 87.8 °F 89.4 °F 64.4 °F 46% 29.94 in 10.0 mi SE 9.2 mph - N/A   Mostly Cloudy
5:35 PM 87.8 °F 88.5 °F 62.6 °F 43% 29.94 in 10.0 mi South 8.1 mph - N/A   Partly Cloudy
5:55 PM 87.8 °F 88.5 °F 62.6 °F 43% 29.94 in 10.0 mi South 11.5 mph - N/A   Clear
6:15 PM 86.0 °F 86.6 °F 62.6 °F 45% 29.95 in 10.0 mi SSE 10.4 mph - N/A   Clear
6:35 PM 84.2 °F 85.0 °F 62.6 °F 48% 29.95 in 10.0 mi SSE 8.1 mph - N/A   Clear
6:55 PM 84.2 °F 85.0 °F 62.6 °F 48% 29.96 in 10.0 mi SSE 6.9 mph - N/A   Partly Cloudy
7:15 PM 84.2 °F 85.0 °F 62.6 °F 48% 29.97 in 10.0 mi South 10.4 mph 18.4 mph N/A   Scattered Clouds
7:35 PM 82.4 °F 83.4 °F 62.6 °F 51% 29.98 in 10.0 mi South 9.2 mph - N/A   Partly Cloudy
7:55 PM 82.4 °F 83.4 °F 62.6 °F 51% 29.99 in 10.0 mi SSE 13.8 mph 24.2 mph N/A   Mostly Cloudy
8:15 PM 78.8 °F - 59.0 °F 51% 30.01 in 10.0 mi SSW 10.4 mph 26.5 mph N/A   Overcast
8:35 PM 77.0 °F - 59.0 °F 54% 30.02 in 10.0 mi South 10.4 mph 18.4 mph N/A   Scattered Clouds
8:55 PM 75.2 °F - 57.2 °F 53% 30.01 in 10.0 mi South 10.4 mph 17.3 mph N/A   Clear
9:15 PM 75.2 °F - 57.2 °F 53% 30.01 in 10.0 mi South 9.2 mph 19.6 mph N/A   Clear
9:35 PM 75.2 °F - 57.2 °F 53% 30.02 in 10.0 mi SSE 8.1 mph - N/A   Clear
9:55 PM 73.4 °F - 57.2 °F 57% 30.01 in 9.0 mi SSE 8.1 mph - N/A   Clear
10:15 PM 73.4 °F - 57.2 °F 57% 30.01 in 10.0 mi SSE 5.8 mph - N/A   Clear
10:55 PM 73.4 °F - 57.2 °F 57% 30.00 in 10.0 mi South 4.6 mph - N/A   Clear
11:15 PM 71.6 °F - 57.2 °F 60% 30.01 in 10.0 mi Calm Calm - N/A   Clear
11:35 PM 71.6 °F - 57.2 °F 60% 30.01 in 10.0 mi SSE 3.5 mph - N/A   Clear
11:55 PM 69.8 °F - 57.2 °F 64% 30.01 in 10.0 mi SE 4.6 mph - N/A   Clear